GFSSW_250_rhum_021.txt.gz
RH
12 11 11 12 13 17 18 22 25 29 32 30 32 39 40 38 32 28 34 44 91 100 99 100 100 100 100 100 100 100 100 93 100 100 100 100 99 89 100 96 89 100 100 100 100
10 10 11 11 12 15 16 20 24 27 22 20 24 36 40 39 33 28 28 27 38 81 98 100 100 100 100 100 100 100 100 100 100 100 100 100 99 100 100 100 100 100 100 100 100
11 11 12 11 10 13 12 14 18 17 14 17 24 31 35 36 37 38 35 31 28 30 54 80 94 100 100 100 100 100 100 100 100 99 100 100 95 88 90 99 100 98 100 100 100
12 11 11 10 10 10 10 11 11 10 12 14 15 22 25 29 39 44 40 35 30 27 26 32 53 64 80 99 98 100 100 100 100 100 100 100 91 78 97 100 100 100 100 100 94
12 11 10 11 10 10 10 11 10 10 9 9 13 17 20 23 28 32 38 37 35 34 31 24 23 30 34 47 82 99 100 100 100 100 100 99 100 90 99 94 91 94 98 85 62
11 10 10 10 10 11 11 10 10 10 9 11 13 15 14 18 20 23 29 32 32 29 27 25 22 23 30 48 58 68 92 92 87 98 100 99 79 71 71 74 60 42 29 16 15
11 10 11 11 11 12 11 11 11 11 11 11 12 12 12 15 18 23 26 29 30 30 29 28 25 24 23 26 36 37 47 61 64 77 63 54 51 33 30 25 21 19 11 14 15
12 11 12 13 13 13 13 12 12 12 12 14 14 14 18 25 26 28 29 30 31 32 31 34 34 34 39 41 40 36 35 31 30 32 28 22 22 20 16 13 12 13 15 17 22
14 13 14 14 14 14 14 15 14 15 17 17 23 30 34 45 52 58 57 53 51 51 47 45 43 43 41 36 32 26 23 19 18 18 16 13 12 12 13 12 14 17 20 22 25
14 15 15 16 18 24 22 18 21 24 32 36 37 38 66 71 77 80 75 72 72 66 57 48 37 28 22 18 17 14 12 11 11 12 12 11 12 14 15 18 20 22 25 31 34
18 20 20 22 53 39 35 32 36 39 41 58 71 99 92 88 74 53 41 32 25 20 17 14 14 14 14 13 13 13 12 12 12 13 13 14 16 18 20 22 22 28 30 26 21
54 50 58 42 45 42 41 46 42 53 82 95 99 89 77 49 33 23 20 18 17 16 16 16 16 15 15 14 14 14 12 12 13 16 19 24 28 28 26 26 26 27 23 20 20
79 55 46 45 44 50 65 78 78 92 100 96 94 65 38 30 25 22 21 20 19 19 19 18 17 17 16 16 15 14 14 13 14 17 20 22 22 22 23 21 18 19 20 20 22
63 69 70 56 66 78 87 97 100 100 100 81 46 33 27 24 24 22 21 21 20 20 20 21 18 18 17 16 16 16 14 14 15 15 16 18 16 21 18 17 18 18 20 21 24
66 76 82 79 81 97 100 100 100 95 81 50 34 28 26 26 24 25 28 28 28 27 25 26 25 26 21 18 18 17 17 16 15 16 16 18 17 16 17 17 16 18 21 23 23
92 92 99 100 96 100 100 100 99 76 51 40 33 30 28 25 27 31 32 30 28 24 21 22 25 30 35 34 26 20 20 19 19 16 15 16 18 14 20 16 18 21 23 25 26
100 100 100 100 100 100 96 79 52 48 47 45 42 33 29 30 36 41 43 41 34 28 27 25 21 19 21 28 32 36 38 26 21 20 16 17 17 15 17 17 17 19 22 25 27
100 100 100 100 100 96 75 53 44 36 40 50 38 30 34 40 36 42 38 33 32 29 22 20 19 20 21 20 25 28 29 31 40 27 19 18 17 17 16 18 21 23 26 23 22
100 100 100 97 95 92 68 47 37 37 47 34 32 39 38 41 46 49 42 36 36 40 31 30 30 30 28 23 21 22 23 26 27 33 30 22 20 17 18 19 21 21 21 30 48
100 100 100 96 96 89 70 49 35 37 45 41 43 47 49 52 67 61 46 49 49 51 49 45 52 56 53 44 34 29 24 23 22 23 23 20 22 16 18 18 22 37 57 65 81
100 100 100 86 72 71 67 39 34 37 48 49 47 55 63 66 79 81 74 58 55 55 55 58 59 58 54 51 45 40 38 38 36 37 35 38 51 40 35 43 53 62 68 61 64
100 94 70 69 82 73 49 36 37 40 50 45 49 57 74 84 83 84 82 62 54 53 56 53 50 46 48 52 46 42 41 44 44 50 52 45 62 63 50 49 66 64 58 54 49
100 80 64 78 83 60 38 38 40 46 51 53 58 71 79 87 84 75 67 63 56 49 45 44 43 40 37 36 36 36 43 49 46 47 52 57 72 60 73 69 55 48 49 44 42
97 76 60 77 61 44 40 40 46 53 58 69 68 79 90 87 75 71 64 57 52 49 46 42 36 33 30 28 27 28 30 37 48 52 61 62 57 56 44 37 39 37 38 45 47
100 86 55 61 59 49 47 48 53 63 76 83 80 78 77 72 62 58 53 48 46 44 40 39 37 42 43 47 41 29 27 30 34 43 46 45 39 37 39 44 42 44 48 49 48
94 91 76 78 70 72 58 56 68 81 82 82 72 62 58 59 59 56 52 56 54 52 50 52 61 59 58 49 46 36 30 29 31 37 42 38 38 42 43 45 48 46 50 64 82
86 77 70 72 73 76 83 84 82 78 78 72 69 66 65 64 56 59 68 66 62 62 64 64 68 63 67 58 54 35 32 34 38 39 41 39 40 43 44 41 42 50 70 73 86

GFSSW_250_rhum_024.txt.gz
RH
38 25 20 17 15 16 19 18 20 27 33 41 40 45 41 46 45 37 35 31 56 50 98 100 100 100 100 100 100 100 100 98 100 84 100 100 100 97 90 83 91 99 100 100 100
25 17 14 13 11 12 12 12 17 28 34 39 43 37 36 40 51 52 41 36 30 31 79 100 100 100 100 100 100 100 100 94 100 93 93 99 100 100 100 99 98 100 100 100 100
16 14 12 11 10 10 11 13 16 22 30 33 30 34 38 41 47 53 50 44 41 30 35 80 100 100 100 100 100 100 100 100 100 100 88 100 100 100 100 100 100 100 100 100 100
14 13 13 11 10 11 12 14 16 19 23 27 32 33 33 35 37 46 51 51 50 45 42 91 100 100 100 100 100 100 100 100 100 92 94 100 100 100 100 100 100 100 100 100 100
14 14 13 12 11 11 11 14 15 16 21 25 25 21 18 20 27 42 54 56 53 54 52 46 46 90 100 92 100 100 100 100 100 100 100 100 100 100 100 100 100 100 100 100 100
16 14 12 11 11 10 11 12 11 12 13 13 12 10 14 22 31 41 45 40 43 51 54 51 43 38 37 40 60 94 100 100 100 100 100 100 100 100 100 100 100 100 98 97 68
15 13 11 11 12 12 12 11 11 10 10 10 9 8 8 11 15 19 26 34 43 44 42 41 38 37 35 34 30 30 30 31 33 48 72 92 100 100 74 96 97 92 64 29 20
14 12 11 12 12 12 12 12 12 11 11 11 10 10 13 13 13 14 14 16 20 26 31 35 35 35 31 29 27 25 22 22 25 34 36 49 76 86 72 55 34 27 18 15 15
13 11 12 12 12 12 12 12 12 12 13 60 53 15 15 14 17 18 18 19 22 25 27 29 28 30 31 29 28 36 42 46 62 73 78 80 67 43 35 26 20 19 18 18 18
14 13 13 13 13 14 14 15 20 18 14 14 15 23 22 32 29 30 32 31 31 35 46 51 46 47 52 64 59 57 60 71 62 38 32 25 20 17 14 13 14 17 18 17 19
13 14 15 15 16 17 20 43 25 21 29 34 29 34 57 51 70 71 71 72 78 72 62 59 57 61 56 43 34 26 25 18 15 14 13 12 12 12 15 18 19 20 21 20 21
14 18 20 18 19 29 34 38 20 38 33 45 50 49 93 94 92 91 75 57 47 40 34 27 18 17 14 14 14 13 13 13 12 12 13 15 17 22 24 25 29 25 25 22 22
25 28 45 96 88 51 37 41 60 43 65 80 100 100 92 67 49 36 28 22 21 18 17 16 16 16 16 15 15 14 14 14 13 13 14 16 14 23 22 22 19 23 23 19 18
48 98 100 100 49 59 64 55 68 78 99 100 93 68 46 30 25 22 21 20 20 20 19 19 18 18 18 17 17 17 15 14 14 14 14 18 14 15 25 18 17 16 17 17 17
100 98 72 67 82 72 79 72 81 100 100 84 51 35 27 23 22 22 22 22 22 22 23 24 25 29 28 23 20 19 17 17 16 15 15 16 16 13 16 18 17 16 19 20 22
100 79 73 75 84 88 93 95 100 100 80 44 34 28 25 26 26 28 30 30 30 35 31 26 26 27 27 27 30 28 23 21 19 18 17 16 23 15 14 15 16 18 19 20 20
83 92 92 94 99 98 100 100 98 77 58 40 33 29 30 28 29 32 33 34 26 25 23 21 21 18 18 19 22 28 28 30 37 43 27 23 25 18 18 16 15 16 18 19 20
99 100 99 90 100 100 100 98 89 64 51 44 39 36 28 28 35 42 43 34 27 26 20 18 19 20 23 21 20 20 22 25 29 32 30 40 35 24 21 19 16 15 16 17 18
100 100 100 100 100 100 97 77 55 50 50 52 47 35 33 38 44 49 47 38 40 40 38 47 51 57 54 47 41 37 40 35 31 26 28 26 28 27 25 27 21 19 19 21 25
100 100 100 100 100 99 81 58 48 42 47 54 39 36 43 45 50 56 48 49 55 61 60 64 62 58 52 45 50 52 48 50 50 53 52 37 34 30 32 39 40 40 38 49 47
100 100 100 100 100 98 82 57 43 42 55 43 43 50 52 56 60 62 61 62 61 64 60 58 54 51 47 47 53 52 55 58 57 59 56 63 58 35 40 36 43 48 46 71 57
100 100 100 100 100 99 94 64 41 43 58 50 49 53 62 64 65 72 74 69 58 54 49 49 46 45 43 38 36 34 35 35 36 39 46 57 84 54 57 44 47 48 40 44 43
100 100 100 100 100 98 82 60 42 45 43 43 44 59 64 69 75 86 78 70 64 60 57 52 49 43 38 36 36 36 40 46 46 39 38 33 49 66 60 64 62 53 49 53 51
100 99 96 100 91 86 72 53 43 42 37 45 60 75 75 74 81 80 76 69 63 58 54 50 44 41 39 39 43 43 43 39 31 32 38 36 37 40 50 44 44 40 44 44 43
100 100 85 77 74 87 68 46 43 43 45 52 69 86 90 87 87 85 74 62 54 49 50 54 55 54 51 55 55 53 45 44 38 37 31 38 38 38 43 46 48 44 51 45 44
100 99 87 73 81 82 65 43 41 44 48 49 59 78 86 90 85 76 62 55 49 52 58 59 63 64 64 65 61 65 61 55 47 41 38 35 35 39 43 46 40 43 46 48 48
100 79 85 71 70 71 56 47 46 46 45 48 54 71 88 85 81 73 66 55 55 66 67 63 63 62 61 58 60 65 71 64 60 49 41 42 40 44 43 45 44 47 46 44 62

GFSSW_250_rhum_030.txt.gz
RH
15 27 36 39 43 47 35 37 25 24 22 21 20 18 20 26 37 39 35 46 58 53 60 58 100 100 100 99 100 100 74 100 100 100 100 100 100 100 98 100 99 97 98 100 100
24 32 47 55 50 53 43 32 26 20 19 19 19 20 25 32 37 45 51 57 73 67 71 67 100 100 100 100 100 100 100 100 100 100 100 100 100 100 100 100 100 91 87 99 100
50 55 71 63 63 44 36 22 17 16 16 17 18 24 34 39 43 55 61 68 82 82 77 72 100 100 100 100 100 100 100 100 100 100 100 100 100 100 100 92 98 100 96 96 100
84 78 75 78 61 32 17 14 13 12 12 14 20 28 36 40 53 62 72 82 88 86 73 74 92 100 100 100 100 100 100 100 100 100 100 100 100 100 100 100 89 82 85 99 100
87 68 65 57 30 16 13 12 11 10 10 14 19 29 39 42 51 70 79 88 89 89 83 76 68 100 100 100 100 100 100 100 100 100 100 100 100 97 97 100 100 100 100 100 100
69 72 61 32 17 13 12 12 11 11 11 12 15 27 35 45 52 65 67 92 100 100 97 83 79 87 100 100 100 100 98 100 100 100 100 100 100 100 100 100 100 100 100 100 100
70 69 42 19 14 14 13 12 13 13 14 15 16 27 38 44 43 52 78 82 88 100 100 100 85 82 100 100 100 100 100 100 100 100 100 100 100 100 100 100 100 99 100 100 100
68 40 21 15 15 15 13 13 12 15 16 18 20 23 36 38 36 36 54 72 83 79 83 90 85 79 92 100 100 100 100 100 100 100 100 100 100 100 100 100 100 100 100 99 78
48 22 17 16 16 13 12 12 14 15 15 19 23 26 28 30 32 31 33 34 33 32 37 48 67 70 68 78 98 100 98 97 100 100 98 100 98 99 96 97 94 94 69 43 38
38 18 16 16 13 14 14 13 13 12 14 16 18 18 17 16 11 9 11 14 18 23 34 45 51 60 69 68 56 53 54 57 63 59 52 54 51 48 48 43 41 47 46 57 55
24 18 15 13 15 15 13 13 13 12 12 13 14 14 12 8 8 8 10 13 17 18 20 20 22 25 30 31 34 32 34 33 36 38 39 39 48 47 48 46 42 36 29 26 21
19 17 13 13 15 14 15 15 15 16 16 24 21 16 20 15 23 21 23 20 20 18 19 22 20 29 32 30 34 46 55 54 52 52 48 42 36 31 28 24 19 16 16 16 17
19 15 13 15 15 14 14 16 28 54 86 73 44 62 56 34 43 51 45 40 42 49 57 61 59 62 60 55 49 47 44 36 27 21 17 15 14 13 14 14 20 26 26 20 16
19 16 17 14 13 15 17 44 62 100 100 66 66 67 76 75 66 71 68 76 68 59 56 42 43 34 27 20 18 16 16 16 16 16 16 18 16 15 16 17 17 16 17 16 16
18 18 16 15 26 35 75 100 78 96 74 57 69 81 78 65 78 81 60 56 33 27 22 19 19 19 18 19 19 18 19 18 18 19 19 17 16 17 17 18 18 18 17 18 20
18 21 24 66 78 99 86 80 91 100 97 87 92 82 81 74 54 41 27 24 23 23 22 21 22 23 23 26 29 26 24 23 24 25 24 21 20 24 25 27 31 39 34 28 34
21 47 69 100 100 100 81 96 83 99 99 99 94 67 54 39 25 25 27 29 27 29 29 31 27 25 23 20 19 19 19 21 23 22 22 29 28 27 25 26 29 30 30 31 32
62 60 80 100 99 100 89 91 88 100 100 78 58 41 30 27 28 30 30 36 35 29 24 24 24 23 33 46 43 52 53 54 55 50 43 48 49 42 28 30 31 38 51 61 64
80 96 96 100 83 87 89 87 99 95 79 54 32 28 28 30 30 38 40 36 31 28 24 38 52 57 57 58 55 51 52 53 51 46 43 45 44 42 40 34 32 33 34 34 32
100 100 100 100 88 84 87 100 100 72 43 32 30 30 32 32 38 42 47 37 36 38 50 56 61 59 48 46 48 47 43 43 44 41 37 38 36 36 36 36 38 32 28 27 27
100 100 100 86 89 98 95 83 76 59 41 37 39 41 34 35 41 42 50 49 56 60 65 67 61 54 50 49 46 44 40 40 52 60 46 34 31 33 36 31 32 37 38 35 34
100 100 99 92 94 100 90 80 69 58 53 50 51 37 36 41 50 60 61 66 70 69 68 60 58 55 50 47 46 49 58 56 38 32 46 51 46 46 43 40 42 40 43 44 44
100 81 86 96 100 98 89 85 64 52 51 46 51 42 44 54 68 68 69 73 68 61 60 57 55 55 50 48 50 53 56 59 66 68 57 52 48 48 47 51 47 43 42 41 42
100 86 98 100 98 95 88 74 57 49 42 45 46 44 56 60 68 72 80 80 82 78 71 66 58 54 51 47 50 58 62 68 66 64 59 52 60 55 50 56 60 54 50 45 40
93 100 100 100 100 100 95 76 58 45 40 45 52 52 55 61 81 82 83 83 88 82 74 65 57 52 66 70 72 74 71 61 54 47 43 41 45 54 66 62 59 59 54 50 45
100 100 94 93 79 100 95 84 71 56 45 41 54 56 56 53 42 63 74 77 88 84 74 60 50 48 53 63 68 67 63 54 50 53 47 48 52 51 52 55 53 50 48 44 39
100 98 92 82 100 100 99 89 85 78 53 56 65 58 40 34 51 74 58 60 77 69 61 57 54 56 60 66 70 71 68 52 57 68 73 66 55 51 52 50 50 45 42 40 44

GFSSW_250_rhum_033.txt.gz
RH
18 16 13 16 21 28 34 38 22 24 25 20 19 20 26 29 30 29 33 36 36 38 38 44 50 52 66 55 96 81 100 70 51 61 100 100 100 100 100 100 100 100 100 98 97
20 17 14 20 43 41 42 34 34 41 34 28 26 25 23 28 33 37 39 44 46 44 49 60 70 71 68 100 100 100 100 100 99 99 100 100 100 100 100 100 98 93 100 97 97
24 17 24 33 37 51 46 46 37 40 36 29 27 25 26 28 34 41 43 51 55 50 63 86 70 88 86 87 100 74 100 100 86 100 100 100 100 100 100 100 100 92 99 100 100
21 18 30 50 52 67 62 42 38 37 24 20 20 23 24 28 35 42 45 48 53 63 62 72 81 87 82 84 100 100 100 100 100 95 100 100 100 100 100 100 100 100 100 100 100
21 23 59 74 73 66 59 42 24 17 15 15 15 19 21 29 37 45 47 50 62 67 78 96 98 94 99 100 100 100 100 100 100 100 97 100 100 100 92 87 91 95 100 100 100
20 26 75 93 76 63 44 24 16 14 14 13 13 14 17 25 35 43 55 66 83 97 100 100 100 100 100 100 100 100 100 100 100 100 99 100 100 100 100 100 100 100 100 100 100
19 39 76 82 67 57 25 16 15 13 13 12 13 16 26 31 39 48 62 91 100 100 100 95 89 90 94 100 100 100 100 100 100 100 100 100 100 100 100 100 100 100 100 100 100
24 49 89 67 55 22 17 16 14 14 13 13 13 16 26 39 50 62 73 100 96 99 99 100 100 96 87 92 100 100 100 100 100 100 100 100 100 100 100 100 100 100 100 100 100
44 88 78 50 25 16 18 16 14 13 14 15 14 18 32 41 51 53 58 88 98 100 100 98 93 88 86 82 83 88 100 100 100 100 100 100 100 97 100 100 100 100 100 99 98
66 82 55 29 17 17 16 14 14 16 17 18 18 24 39 42 44 42 38 51 69 70 68 70 78 82 81 82 78 80 86 91 100 100 100 100 100 98 96 94 87 82 62 62 64
74 62 37 17 17 16 14 14 16 16 18 20 22 23 31 37 39 37 30 40 46 48 63 67 46 41 44 49 65 72 73 67 77 84 92 88 78 58 60 64 55 52 44 47 44
77 53 19 18 16 16 16 15 14 16 19 22 24 25 25 25 24 22 15 18 15 14 14 16 18 26 31 33 37 41 36 39 41 42 40 38 40 42 41 40 40 35 29 24 21
67 27 20 16 17 17 15 13 13 13 14 14 13 13 14 12 12 9 9 10 12 16 17 17 24 26 31 33 34 37 38 44 49 49 46 45 41 29 22 17 15 16 16 14 15
53 24 19 16 17 14 14 14 16 15 14 20 18 16 12 13 23 24 30 34 38 33 40 38 39 47 56 59 56 48 36 34 34 28 22 19 16 16 19 20 17 16 15 15 16
39 25 17 17 16 15 17 23 35 48 56 62 53 53 52 66 78 51 49 56 61 66 65 61 48 44 43 43 31 19 20 18 18 16 16 16 18 19 19 19 19 20 22 22 21
31 19 17 18 17 22 46 70 88 100 95 64 58 48 50 72 72 74 68 62 55 43 38 28 25 21 21 21 20 19 19 20 21 20 18 20 23 30 28 28 29 30 30 31 33
29 20 23 28 23 49 83 100 100 100 93 84 78 70 66 70 53 55 52 42 26 22 23 22 21 22 22 21 20 19 18 17 20 26 28 28 32 38 45 54 57 60 59 55 61
26 23 34 59 78 97 100 76 72 64 87 91 81 80 77 50 32 28 25 25 25 26 30 25 22 22 22 21 20 25 38 42 43 54 48 46 42 41 38 38 36 34 32 31 33
27 29 69 97 93 100 82 70 81 90 97 96 91 50 32 34 28 30 29 31 29 27 23 21 23 38 51 58 64 63 51 43 41 40 38 42 41 33 33 32 31 31 30 38 50
36 44 87 98 100 100 72 97 84 91 96 86 55 38 36 32 33 36 38 32 26 26 28 46 68 72 67 52 46 44 42 41 40 40 44 48 50 47 44 43 40 39 38 37 38
49 60 92 100 100 100 78 100 86 73 82 61 36 34 30 34 36 38 42 33 35 44 59 74 65 57 50 50 50 49 45 46 50 48 50 49 40 39 42 41 40 40 38 35 34
81 86 99 100 95 94 83 94 92 87 55 36 31 31 31 33 41 43 49 49 52 64 72 69 64 57 53 52 52 52 56 61 62 59 48 38 43 48 42 41 41 44 48 49 52
96 100 100 100 91 86 85 100 89 61 40 35 40 39 35 36 43 47 57 58 68 75 70 64 60 56 56 55 54 55 62 65 60 53 44 47 45 42 39 37 36 36 36 38 39
92 100 100 100 83 87 99 98 76 55 51 51 52 40 34 44 52 61 67 71 70 69 64 65 64 66 61 59 57 68 72 68 65 60 57 52 44 42 37 35 36 43 49 48 45
96 100 100 100 92 100 96 84 71 63 57 55 53 46 43 61 60 65 67 71 79 80 79 76 75 68 62 53 53 60 61 61 62 62 55 46 47 46 50 50 49 46 44 50 55
100 100 100 92 96 100 98 87 69 64 56 50 55 46 42 45 46 60 57 73 84 87 88 89 84 74 64 52 55 62 59 62 69 56 45 46 47 57 61 57 57 52 54 61 68
100 100 94 99 100 98 89 79 70 58 50 48 55 54 51 49 51 52 76 82 74 73 83 84 72 69 69 60 66 79 69 71 59 49 42 48 55 62 61 62 72 62 59 63 68